AFL212 UUEE-VHHH

Flight info

Callsign AFL212
Flight time N/A
Altitude 37000
Route K0917F370 OLMUN3E OLMUN T629 IPSIL T830 LAMGU N604 OGSIN P983 TINRI T448 RUBOR A300 ML/K0876F390 R814 SZ B926 ODIDA A575 DARNO/K0883S1190 Y746 NIXAL G343 TMR B458 EMVEM/K0885S1250 B458 DADGA/K0876S1220 W37 GUSIV/K0882S1250 W37 PEXID/K0878S1220 W37 OMBEB/K0880S1250 R473 NNX/K0882S1220 R473 WYN W18 NLG W23 ZUH R473 SIERA SIERA7C
Aircraft A359/H-SDE2E3GHIJ3J4J5LM1ORWXY/LB1D1

Departure

Time 2026-04-30 10:21
Airport Sheremetyevo International Airport (UUEE)

Arrival

Time N/A
Airport Hong Kong International Airport (VHHH)
Time Latitude Longitude Altitude Speed Heading
2026-04-30 09:54 55.97671 37.39825 645 ft 0 kts 220°
2026-04-30 10:11 55.97664 37.39815 645 ft 3 kts 220°
2026-04-30 10:12 55.97636 37.39772 647 ft 7 kts 216°
2026-04-30 10:12 55.97596 37.39757 647 ft 6 kts 173°
2026-04-30 10:12 55.97547 37.39773 649 ft 8 kts 167°
2026-04-30 10:12 55.97485 37.39803 645 ft 10 kts 163°
2026-04-30 10:13 55.97415 37.39841 651 ft 0 kts 164°
2026-04-30 10:13 55.97414 37.39841 650 ft 0 kts 164°
2026-04-30 10:13 55.97407 37.39845 645 ft 2 kts 164°
2026-04-30 10:14 55.97379 37.39863 645 ft 6 kts 154°
2026-04-30 10:14 55.97358 37.39925 649 ft 7 kts 103°
2026-04-30 10:14 55.97380 37.40150 645 ft 13 kts 77°
2026-04-30 10:15 55.97406 37.40329 649 ft 16 kts 75°
2026-04-30 10:15 55.97438 37.40543 648 ft 19 kts 74°
2026-04-30 10:15 55.97477 37.40786 649 ft 21 kts 74°
2026-04-30 10:15 55.97518 37.41051 650 ft 23 kts 75°
2026-04-30 10:16 55.97557 37.41334 645 ft 25 kts 75°
2026-04-30 10:16 55.97602 37.41638 645 ft 26 kts 75°
2026-04-30 10:16 55.97650 37.41955 648 ft 23 kts 74°
2026-04-30 10:17 55.97733 37.42501 651 ft 25 kts 74°
2026-04-30 10:17 55.97825 37.43125 648 ft 27 kts 75°
2026-04-30 10:17 55.97875 37.43455 645 ft 21 kts 75°
2026-04-30 10:18 55.97893 37.43576 645 ft 10 kts 75°
2026-04-30 10:18 55.97913 37.43712 645 ft 13 kts 75°
2026-04-30 10:18 55.97939 37.43881 645 ft 15 kts 75°
2026-04-30 10:19 55.97897 37.44041 645 ft 7 kts 158°
2026-04-30 10:19 55.97846 37.44072 646 ft 9 kts 163°
2026-04-30 10:19 55.97801 37.44073 646 ft 3 kts 215°
2026-04-30 10:19 55.97789 37.44040 646 ft 4 kts 243°
2026-04-30 10:20 55.97782 37.44004 646 ft 0 kts 252°
2026-04-30 10:21 55.97742 37.43760 648 ft 65 kts 255°
2026-04-30 10:21 55.97628 37.42991 647 ft 127 kts 255°
2026-04-30 10:21 55.97338 37.41047 956 ft 180 kts 256°
2026-04-30 10:21 55.96867 37.38049 2372 ft 198 kts 256°
2026-04-30 10:22 55.96600 37.36425 2744 ft 207 kts 256°
2026-04-30 10:22 55.96197 37.33823 3047 ft 231 kts 257°
2026-04-30 10:22 55.95757 37.30928 3546 ft 247 kts 257°
2026-04-30 10:22 55.95298 37.27960 4226 ft 253 kts 256°
2026-04-30 10:23 55.94819 37.24908 5075 ft 255 kts 257°
2026-04-30 10:23 55.94336 37.21831 5876 ft 258 kts 256°
2026-04-30 10:23 55.93849 37.18740 6673 ft 261 kts 256°
2026-04-30 10:23 55.93355 37.15633 7446 ft 263 kts 257°
2026-04-30 10:24 55.92853 37.12462 8220 ft 266 kts 256°
2026-04-30 10:24 55.92352 37.09300 9003 ft 269 kts 256°
2026-04-30 10:24 55.91846 37.06054 9815 ft 272 kts 257°
2026-04-30 10:24 55.91749 37.02683 10528 ft 274 kts 280°
2026-04-30 10:25 55.92431 36.99474 10853 ft 289 kts 304°
2026-04-30 10:25 55.93894 36.96867 11151 ft 307 kts 323°
2026-04-30 10:25 55.95699 36.94685 11641 ft 316 kts 329°
2026-04-30 10:25 55.97705 36.93106 12265 ft 322 kts 344°
2026-04-30 10:26 55.99950 36.92687 12968 ft 327 kts
2026-04-30 10:26 56.02181 36.93642 13612 ft 334 kts 22°
2026-04-30 10:26 56.04196 36.95671 14277 ft 338 kts 31°
2026-04-30 10:26 56.06180 36.98017 14872 ft 342 kts 32°
2026-04-30 10:27 56.08174 37.00399 15473 ft 345 kts 32°
2026-04-30 10:27 56.10147 37.02909 16067 ft 350 kts 38°
2026-04-30 10:27 56.11750 37.06163 16653 ft 357 kts 56°
2026-04-30 10:27 56.12742 37.10297 17065 ft 368 kts 71°
2026-04-30 10:28 56.13410 37.14807 17399 ft 377 kts 74°
2026-04-30 10:28 56.14034 37.19418 17865 ft 381 kts 74°
2026-04-30 10:28 56.14650 37.24061 18385 ft 384 kts 76°
2026-04-30 10:28 56.14879 37.28815 18830 ft 391 kts 92°
2026-04-30 10:29 56.14255 37.33584 19317 ft 395 kts 112°
2026-04-30 10:29 56.12753 37.37726 19750 ft 399 kts 133°
2026-04-30 10:29 56.10531 37.40723 20136 ft 402 kts 154°
2026-04-30 10:29 56.07894 37.42197 20557 ft 404 kts 172°
2026-04-30 10:30 56.05134 37.43256 20967 ft 408 kts 162°
2026-04-30 10:30 56.02484 37.45159 21431 ft 410 kts 156°
2026-04-30 10:30 55.99878 37.47306 21880 ft 413 kts 155°
2026-04-30 10:30 55.97363 37.49808 22296 ft 415 kts 144°
2026-04-30 10:31 55.95233 37.53295 22733 ft 417 kts 128°
2026-04-30 10:31 55.93717 37.57689 23145 ft 417 kts 112°
2026-04-30 10:31 55.92882 37.62583 23572 ft 417 kts 101°
2026-04-30 10:31 55.92316 37.67672 23955 ft 420 kts 100°
2026-04-30 10:32 55.91674 37.72800 24171 ft 427 kts 107°
2026-04-30 10:32 55.90532 37.77712 24490 ft 429 kts 117°
2026-04-30 10:32 55.89114 37.82414 24854 ft 431 kts 119°
2026-04-30 10:32 55.87661 37.87054 25215 ft 433 kts 119°
2026-04-30 10:33 55.86181 37.91765 25547 ft 435 kts 119°
2026-04-30 10:33 55.84712 37.96437 25868 ft 438 kts 118°
2026-04-30 10:33 55.83217 38.01191 26214 ft 440 kts 118°
2026-04-30 10:33 55.81723 38.05984 26553 ft 442 kts 117°
2026-04-30 10:34 55.80490 38.11025 26859 ft 444 kts 107°
2026-04-30 10:34 55.79835 38.16312 27159 ft 444 kts 95°
2026-04-30 10:34 55.79743 38.21809 27446 ft 446 kts 87°
2026-04-30 10:34 55.79862 38.27365 27736 ft 449 kts 86°
2026-04-30 10:35 55.80001 38.32924 28062 ft 451 kts 86°
2026-04-30 10:35 55.80192 38.38511 28368 ft 453 kts 83°
2026-04-30 10:35 55.80773 38.43969 28671 ft 454 kts 73°
2026-04-30 10:35 55.81689 38.49356 28984 ft 455 kts 71°
2026-04-30 10:36 55.82665 38.54743 29285 ft 457 kts 71°
2026-04-30 10:36 55.83649 38.60173 29584 ft 459 kts 71°
2026-04-30 10:36 55.84617 38.65549 29889 ft 462 kts 71°
2026-04-30 10:36 55.85648 38.70973 30192 ft 463 kts 67°
2026-04-30 10:37 55.86945 38.76231 30424 ft 464 kts 63°
2026-04-30 10:37 55.88332 38.81452 30652 ft 466 kts 63°
2026-04-30 10:37 55.89729 38.86676 30886 ft 469 kts 63°
2026-04-30 10:37 55.91117 38.91887 31088 ft 471 kts 63°
2026-04-30 10:38 55.92525 38.97188 31282 ft 474 kts 63°
2026-04-30 10:38 55.93937 39.02525 31482 ft 476 kts 64°
2026-04-30 10:38 55.95353 39.07891 31684 ft 478 kts 64°
2026-04-30 10:38 55.96769 39.13268 31896 ft 479 kts 63°
2026-04-30 10:39 55.98198 39.18665 32057 ft 481 kts 63°
2026-04-30 10:39 55.99619 39.24035 32222 ft 483 kts 64°
2026-04-30 10:39 56.02504 39.34981 32425 ft 490 kts 64°
2026-04-30 10:40 56.03966 39.40554 32630 ft 491 kts 64°
2026-04-30 10:40 56.05417 39.46098 32807 ft 493 kts 64°
2026-04-30 10:40 56.06876 39.51672 32922 ft 495 kts 64°
2026-04-30 10:40 56.08491 39.57041 33097 ft 495 kts 58°
2026-04-30 10:41 56.10300 39.62341 33256 ft 497 kts 57°
2026-04-30 10:41 56.12158 39.67560 33510 ft 496 kts 56°
2026-04-30 10:41 56.14040 39.72757 33755 ft 495 kts 56°
2026-04-30 10:41 56.15897 39.77872 33977 ft 495 kts 56°
2026-04-30 10:42 56.17775 39.83069 34204 ft 494 kts 56°
2026-04-30 10:42 56.19643 39.88271 34365 ft 495 kts 56°
2026-04-30 10:42 56.21506 39.93492 34527 ft 495 kts 56°
2026-04-30 10:42 56.23340 39.98656 34614 ft 497 kts 56°
2026-04-30 10:43 56.25196 40.03900 34787 ft 496 kts 57°
2026-04-30 10:43 56.27053 40.09166 34930 ft 497 kts 57°
2026-04-30 10:43 56.28901 40.14415 35110 ft 496 kts 56°
2026-04-30 10:43 56.30755 40.19693 35245 ft 497 kts 57°
2026-04-30 10:44 56.32578 40.24892 35412 ft 496 kts 57°
2026-04-30 10:44 56.34421 40.30162 35549 ft 497 kts 57°
2026-04-30 10:44 56.36272 40.35460 35695 ft 497 kts 57°
2026-04-30 10:44 56.38113 40.40743 35832 ft 497 kts 57°
2026-04-30 10:45 56.41777 40.51293 36091 ft 498 kts 57°
2026-04-30 10:45 56.43615 40.56604 36220 ft 498 kts 57°
2026-04-30 10:45 56.45317 40.62077 36361 ft 498 kts 64°
2026-04-30 10:46 56.47632 40.73908 36593 ft 499 kts 73°
2026-04-30 10:46 56.48576 40.79875 36700 ft 500 kts 74°
2026-04-30 10:46 56.49491 40.85960 36854 ft 499 kts 75°
2026-04-30 10:47 56.50387 40.92054 36975 ft 500 kts 75°
2026-04-30 10:47 56.51278 40.98151 37102 ft 499 kts 75°
2026-04-30 10:47 56.53056 41.10297 37198 ft 504 kts 75°
2026-04-30 10:48 56.54868 41.22637 37196 ft 506 kts 75°
2026-04-30 10:48 56.56661 41.34901 37195 ft 505 kts 75°
2026-04-30 10:49 56.58451 41.47238 37195 ft 505 kts 75°
2026-04-30 10:49 56.60220 41.59529 37193 ft 505 kts 76°
2026-04-30 10:50 56.61986 41.71898 37195 ft 506 kts 76°
2026-04-30 10:50 56.63742 41.84300 37195 ft 506 kts 76°
2026-04-30 10:51 56.65474 41.96626 37190 ft 506 kts 76°
2026-04-30 10:51 56.67208 42.09062 37189 ft 506 kts 76°
2026-04-30 10:52 56.68918 42.21428 37189 ft 506 kts 76°
2026-04-30 10:52 56.70626 42.33879 37189 ft 506 kts 76°
2026-04-30 10:53 56.72313 42.46282 37183 ft 506 kts 77°
2026-04-30 10:53 56.74001 42.58731 37183 ft 506 kts 76°
2026-04-30 10:54 56.75967 42.71072 37184 ft 506 kts 73°
2026-04-30 10:54 56.78039 42.83267 37184 ft 506 kts 73°
2026-04-30 10:55 56.80077 42.95574 37175 ft 506 kts 74°
2026-04-30 10:55 56.82054 43.07842 37176 ft 506 kts 74°
2026-04-30 10:56 56.84018 43.20192 37173 ft 507 kts 75°
2026-04-30 10:56 56.85978 43.32610 37173 ft 507 kts 75°
2026-04-30 10:57 56.87917 43.44976 37167 ft 507 kts 75°
2026-04-30 10:57 56.89841 43.57327 37168 ft 507 kts 75°
2026-04-30 10:58 56.91766 43.69780 37165 ft 507 kts 75°
2026-04-30 10:58 56.93663 43.82142 37165 ft 507 kts 75°
2026-04-30 10:59 56.95564 43.94622 37164 ft 507 kts 75°
2026-04-30 10:59 56.97440 44.07031 37164 ft 507 kts 75°
2026-04-30 11:00 56.99314 44.19522 37162 ft 508 kts 75°
2026-04-30 11:00 57.01174 44.32020 37156 ft 508 kts 76°
2026-04-30 11:01 57.03018 44.44497 37159 ft 509 kts 76°
2026-04-30 11:01 57.04860 44.57068 37159 ft 509 kts 76°
2026-04-30 11:02 57.06690 44.69646 37159 ft 509 kts 76°
2026-04-30 11:02 57.08508 44.82248 37154 ft 509 kts 76°
2026-04-30 11:03 57.10306 44.94809 37156 ft 510 kts 76°
2026-04-30 11:04 57.12988 45.13731 37157 ft 510 kts 77°
2026-04-30 11:04 57.14765 45.26402 37155 ft 510 kts 77°
2026-04-30 11:05 57.16518 45.38996 37151 ft 510 kts 77°
2026-04-30 11:05 57.18274 45.51719 37154 ft 511 kts 77°
2026-04-30 11:06 57.20006 45.64376 37154 ft 511 kts 77°
2026-04-30 11:06 57.21735 45.77111 37152 ft 511 kts 77°
2026-04-30 11:07 57.23440 45.89778 37149 ft 511 kts 77°
2026-04-30 11:07 57.25143 46.02538 37147 ft 511 kts 78°
2026-04-30 11:08 57.26837 46.15335 37148 ft 512 kts 78°
2026-04-30 11:08 57.28507 46.28065 37148 ft 512 kts 78°
2026-04-30 11:09 57.30174 46.40881 37149 ft 512 kts 78°
2026-04-30 11:09 57.31818 46.53626 37149 ft 512 kts 78°
2026-04-30 11:10 57.33185 46.64312 37149 ft 512 kts 78°
2026-04-30 11:10 57.35406 46.79103 37143 ft 515 kts 69°
2026-04-30 11:11 57.37754 46.89352 37146 ft 516 kts 68°
2026-04-30 11:11 57.40688 47.01450 37146 ft 516 kts 67°
2026-04-30 11:12 57.43659 47.13615 37148 ft 516 kts 67°
2026-04-30 11:12 57.46580 47.25710 37139 ft 516 kts 67°
2026-04-30 11:13 57.49505 47.37936 37145 ft 518 kts 68°
2026-04-30 11:13 57.52420 47.50184 37145 ft 518 kts 68°
2026-04-30 11:14 57.55333 47.62476 37140 ft 518 kts 68°
2026-04-30 11:14 57.58217 47.74712 37138 ft 517 kts 68°
2026-04-30 11:15 57.61093 47.86983 37138 ft 518 kts 68°
2026-04-30 11:15 57.63976 47.99356 37135 ft 519 kts 68°
2026-04-30 11:16 57.66830 48.11680 37152 ft 519 kts 68°
2026-04-30 11:16 57.69690 48.24098 37135 ft 519 kts 68°
2026-04-30 11:17 57.72521 48.36464 37131 ft 519 kts 68°
2026-04-30 11:17 57.74927 48.49234 37145 ft 516 kts 81°
2026-04-30 11:18 57.76098 48.62456 37141 ft 515 kts 84°
2026-04-30 11:18 57.77483 48.82378 37138 ft 516 kts 85°
2026-04-30 11:19 57.78387 48.95761 37138 ft 516 kts 85°
2026-04-30 11:19 57.79288 49.09042 37139 ft 517 kts 85°
2026-04-30 11:20 57.80191 49.22455 37138 ft 517 kts 85°
2026-04-30 11:20 57.81076 49.35792 37132 ft 517 kts 85°
2026-04-30 11:21 57.81951 49.49217 37132 ft 517 kts 85°
2026-04-30 11:21 57.82807 49.62576 37133 ft 517 kts 86°
2026-04-30 11:22 57.83654 49.76036 37098 ft 517 kts 86°
2026-04-30 11:22 57.84484 49.89442 37130 ft 518 kts 86°
2026-04-30 11:23 57.85298 50.02838 37129 ft 518 kts 86°
2026-04-30 11:24 57.86504 50.22974 37132 ft 518 kts 86°
2026-04-30 11:24 57.87297 50.36462 37132 ft 518 kts 87°
2026-04-30 11:25 57.88452 50.56595 37132 ft 518 kts 87°
2026-04-30 11:26 57.89944 50.83523 37129 ft 519 kts 87°
2026-04-30 11:26 57.90672 50.97056 37129 ft 519 kts 88°
2026-04-30 11:27 57.91380 51.10499 37130 ft 519 kts 88°
2026-04-30 11:27 57.92078 51.24038 37134 ft 520 kts 88°
2026-04-30 11:28 57.93097 51.44316 37132 ft 520 kts 88°
2026-04-30 11:29 57.93771 51.57894 37135 ft 520 kts 88°
2026-04-30 11:29 57.94752 51.78193 37133 ft 520 kts 89°
2026-04-30 11:30 57.95704 51.98564 37129 ft 521 kts 89°
2026-04-30 11:31 57.96320 52.12143 37135 ft 521 kts 89°
2026-04-30 11:31 57.96923 52.25719 37131 ft 521 kts 89°
2026-04-30 11:32 57.97513 52.39364 37139 ft 521 kts 89°
2026-04-30 11:32 57.98085 52.52927 37134 ft 521 kts 89°
2026-04-30 11:33 57.98916 52.73297 37130 ft 522 kts 90°
2026-04-30 11:33 57.99457 52.86990 37131 ft 523 kts 90°
2026-04-30 11:34 57.99982 53.00684 37132 ft 523 kts 90°
2026-04-30 11:34 58.00491 53.14312 37130 ft 523 kts 90°
2026-04-30 11:35 58.00986 53.27963 37130 ft 524 kts 90°
2026-04-30 11:35 58.01469 53.41724 37129 ft 526 kts 90°
2026-04-30 11:36 58.01937 53.55441 37129 ft 526 kts 91°
2026-04-30 11:36 58.02394 53.69288 37128 ft 526 kts 91°
2026-04-30 11:37 58.02831 53.82979 37130 ft 526 kts 91°
2026-04-30 11:37 58.03258 53.96815 37128 ft 526 kts 91°
2026-04-30 11:38 58.03674 54.10570 37126 ft 527 kts 91°
2026-04-30 11:38 58.04079 54.24436 37127 ft 528 kts 91°
2026-04-30 11:39 58.04468 54.38236 37123 ft 529 kts 91°
2026-04-30 11:39 58.04842 54.52073 37124 ft 529 kts 92°
2026-04-30 11:40 58.05204 54.65996 37125 ft 529 kts 92°
2026-04-30 11:40 58.05296 54.79865 37121 ft 524 kts 101°
2026-04-30 11:41 58.04488 54.93486 37122 ft 523 kts 103°
2026-04-30 11:41 58.03519 55.07045 37121 ft 522 kts 103°
2026-04-30 11:42 58.02512 55.20640 37119 ft 522 kts 103°
2026-04-30 11:42 58.01508 55.34196 37115 ft 522 kts 103°
2026-04-30 11:43 58.00511 55.47740 37120 ft 522 kts 103°
2026-04-30 11:43 57.99508 55.61242 37120 ft 522 kts 104°
2026-04-30 11:44 57.98478 55.74851 37123 ft 524 kts 104°
2026-04-30 11:44 57.97434 55.88454 37127 ft 524 kts 104°
2026-04-30 11:45 57.96392 56.01974 37129 ft 524 kts 104°
2026-04-30 11:45 57.95324 56.15566 37131 ft 524 kts 104°
2026-04-30 11:46 57.94247 56.29083 37114 ft 522 kts 104°
2026-04-30 11:46 57.93154 56.42617 37116 ft 521 kts 104°
2026-04-30 11:47 57.92054 56.56050 37121 ft 523 kts 105°
2026-04-30 11:47 57.90933 56.69559 37123 ft 523 kts 105°
2026-04-30 11:48 57.89795 56.83097 37125 ft 523 kts 105°
2026-04-30 11:48 57.88650 56.96547 37127 ft 523 kts 105°
2026-04-30 11:49 57.87484 57.10068 37129 ft 523 kts 105°
2026-04-30 11:49 57.86309 57.23508 37125 ft 523 kts 105°
2026-04-30 11:50 57.85115 57.36998 37128 ft 523 kts 105°
2026-04-30 11:50 57.83913 57.50404 37126 ft 522 kts 105°
2026-04-30 11:51 57.82691 57.63875 37132 ft 522 kts 105°
2026-04-30 11:51 57.81461 57.77266 37128 ft 522 kts 106°
2026-04-30 11:52 57.80216 57.90657 37109 ft 521 kts 106°
2026-04-30 11:52 57.78957 58.04062 37127 ft 520 kts 106°
2026-04-30 11:53 57.77699 58.17349 37132 ft 521 kts 106°
2026-04-30 11:53 57.76413 58.30764 37132 ft 521 kts 107°
2026-04-30 11:54 57.75129 58.44073 37132 ft 521 kts 107°
2026-04-30 11:54 57.73826 58.57476 37132 ft 521 kts 107°
2026-04-30 11:55 57.72520 58.70764 37132 ft 521 kts 107°
2026-04-30 11:55 57.71194 58.84103 37131 ft 521 kts 107°
2026-04-30 11:56 57.69859 58.97374 37135 ft 522 kts 107°
2026-04-30 11:56 57.68499 59.10737 37133 ft 522 kts 107°
2026-04-30 11:57 57.67127 59.24083 37132 ft 522 kts 107°
2026-04-30 11:57 57.65749 59.37332 37132 ft 522 kts 108°
2026-04-30 11:58 57.64346 59.50686 37132 ft 522 kts 108°
2026-04-30 11:58 57.62939 59.63928 37111 ft 521 kts 108°
2026-04-30 11:59 57.61521 59.77131 37133 ft 521 kts 108°
2026-04-30 11:59 57.60319 59.88198 37133 ft 522 kts 108°
2026-04-30 12:00 57.58872 60.01424 37134 ft 522 kts 108°
2026-04-30 12:00 57.57404 60.14702 37135 ft 522 kts 108°
2026-04-30 12:01 57.55923 60.27965 37133 ft 522 kts 109°
2026-04-30 12:01 57.54440 60.41105 37134 ft 521 kts 109°
2026-04-30 12:02 57.52930 60.54349 37130 ft 521 kts 109°
2026-04-30 12:02 57.52006 60.67781 37135 ft 530 kts 100°
2026-04-30 12:03 57.51366 60.88382 37135 ft 531 kts 99°
2026-04-30 12:04 57.50978 61.02061 37133 ft 531 kts 99°
2026-04-30 12:04 57.50555 61.15831 37136 ft 531 kts 99°
2026-04-30 12:05 57.50110 61.29479 37137 ft 532 kts 99°
2026-04-30 12:05 57.49642 61.43243 37140 ft 533 kts 99°
2026-04-30 12:06 57.49163 61.56972 37126 ft 534 kts 99°
2026-04-30 12:06 57.48669 61.70782 37136 ft 534 kts 99°
2026-04-30 12:07 57.48165 61.84514 37130 ft 533 kts 100°
2026-04-30 12:07 57.47647 61.98206 37134 ft 534 kts 100°
2026-04-30 12:08 57.47109 62.12010 37132 ft 535 kts 100°
2026-04-30 12:08 57.46555 62.25829 37130 ft 535 kts 100°
2026-04-30 12:09 57.46002 62.39577 37135 ft 535 kts 100°
2026-04-30 12:09 57.45440 62.53312 37132 ft 535 kts 100°
2026-04-30 12:10 57.44858 62.67095 37111 ft 535 kts 100°
2026-04-30 12:10 57.44260 62.80834 37133 ft 536 kts 100°
2026-04-30 12:11 57.43642 62.94692 37132 ft 536 kts 100°
2026-04-30 12:11 57.43016 63.08419 37133 ft 536 kts 101°
2026-04-30 12:12 57.42370 63.22241 37134 ft 536 kts 101°
2026-04-30 12:12 57.41709 63.36025 37136 ft 536 kts 101°
2026-04-30 12:13 57.41034 63.49788 37135 ft 537 kts 101°
2026-04-30 12:13 57.40345 63.63534 37144 ft 538 kts 101°
2026-04-30 12:14 57.39430 63.77256 37139 ft 531 kts 109°
2026-04-30 12:14 57.37707 63.90546 37140 ft 528 kts 111°
2026-04-30 12:15 57.35827 64.03757 37144 ft 528 kts 111°
2026-04-30 12:15 57.33932 64.16833 37142 ft 529 kts 111°
2026-04-30 12:16 57.32017 64.30036 37142 ft 529 kts 111°
2026-04-30 12:16 57.30112 64.43138 37143 ft 529 kts 111°
2026-04-30 12:17 57.27238 64.62779 37143 ft 529 kts 111°
2026-04-30 12:17 57.25292 64.75906 37141 ft 528 kts 112°
2026-04-30 12:18 57.23343 64.88938 37146 ft 528 kts 112°
2026-04-30 12:18 57.21371 65.02021 37153 ft 527 kts 112°
2026-04-30 12:19 57.19399 65.15011 37155 ft 527 kts 112°
2026-04-30 12:19 57.17425 65.28002 37153 ft 529 kts 111°
2026-04-30 12:20 57.16221 65.41483 37141 ft 535 kts 103°
2026-04-30 12:20 57.15330 65.55148 37158 ft 536 kts 102°
2026-04-30 12:21 57.14479 65.68729 37137 ft 536 kts 102°
2026-04-30 12:21 57.13594 65.82418 37145 ft 537 kts 102°
2026-04-30 12:22 57.12689 65.95977 37141 ft 536 kts 102°
2026-04-30 12:22 57.11758 66.09637 37142 ft 536 kts 103°
2026-04-30 12:23 57.10821 66.23194 37139 ft 536 kts 103°
2026-04-30 12:23 57.09865 66.36809 37137 ft 536 kts 103°
2026-04-30 12:24 57.08895 66.50404 37143 ft 537 kts 103°
2026-04-30 12:24 57.07908 66.64040 37138 ft 537 kts 103°
2026-04-30 12:25 57.06912 66.77598 37143 ft 537 kts 103°
2026-04-30 12:25 57.05900 66.91166 37143 ft 537 kts 103°
2026-04-30 12:26 57.04803 67.04763 37137 ft 536 kts 104°
2026-04-30 12:26 57.03617 67.18228 37139 ft 536 kts 104°
2026-04-30 12:27 57.02416 67.31762 37144 ft 536 kts 104°
2026-04-30 12:27 57.01214 67.45308 37139 ft 536 kts 104°
2026-04-30 12:28 57.00016 67.58717 37146 ft 535 kts 104°
2026-04-30 12:28 56.98800 67.72181 37145 ft 534 kts 104°
2026-04-30 12:29 56.97570 67.85590 37140 ft 535 kts 105°
2026-04-30 12:29 56.96320 67.99059 37138 ft 535 kts 105°
2026-04-30 12:30 56.95060 68.12480 37140 ft 535 kts 105°
2026-04-30 12:30 56.93788 68.25867 37145 ft 535 kts 105°
2026-04-30 12:31 56.92496 68.39303 37141 ft 535 kts 105°
2026-04-30 12:31 56.91191 68.52697 37146 ft 536 kts 105°
2026-04-30 12:32 56.89876 68.66058 37141 ft 536 kts 105°
2026-04-30 12:32 56.88538 68.79503 37145 ft 535 kts 105°
2026-04-30 12:33 56.87194 68.92851 37146 ft 535 kts 105°
2026-04-30 12:33 56.85829 69.06243 37135 ft 535 kts 105°
2026-04-30 12:34 56.84458 69.19542 37149 ft 536 kts 105°
2026-04-30 12:34 56.83065 69.32922 37146 ft 536 kts 105°
2026-04-30 12:35 56.81654 69.46323 37146 ft 536 kts 105°
2026-04-30 12:35 56.80239 69.59613 37151 ft 536 kts 106°
2026-04-30 12:36 56.78801 69.72974 37148 ft 536 kts 106°
2026-04-30 12:36 56.77352 69.86301 37151 ft 537 kts 105°
2026-04-30 12:37 56.75888 69.99619 37151 ft 537 kts 106°
2026-04-30 12:37 56.74404 70.12991 37153 ft 537 kts 106°
2026-04-30 12:38 56.72912 70.26266 37151 ft 537 kts 106°
2026-04-30 12:38 56.71309 70.39567 37151 ft 536 kts 107°
2026-04-30 12:39 56.69663 70.52779 37134 ft 540 kts 107°
2026-04-30 12:39 56.68824 70.59492 37252 ft 541 kts 107°
2026-04-30 12:39 56.68001 70.66089 37485 ft 539 kts 107°
2026-04-30 12:40 56.67173 70.72735 37819 ft 535 kts 107°
2026-04-30 12:40 56.66347 70.79350 38068 ft 534 kts 107°
2026-04-30 12:40 56.65519 70.85941 38253 ft 534 kts 107°
2026-04-30 12:40 56.64697 70.92450 38424 ft 533 kts 107°
2026-04-30 12:41 56.63862 70.99032 38595 ft 533 kts 107°
2026-04-30 12:41 56.63023 71.05608 38769 ft 532 kts 107°
2026-04-30 12:41 56.62195 71.12075 38912 ft 531 kts 107°
2026-04-30 12:41 56.61350 71.18642 38966 ft 532 kts 107°
2026-04-30 12:42 56.59650 71.31766 39139 ft 533 kts 107°
2026-04-30 12:42 56.57939 71.44852 39150 ft 536 kts 107°
2026-04-30 12:43 56.56198 71.58059 39140 ft 536 kts 107°
2026-04-30 12:43 56.54460 71.71133 39142 ft 535 kts 107°
2026-04-30 12:44 56.52710 71.84176 39146 ft 534 kts 107°
2026-04-30 12:44 56.50940 71.97251 39145 ft 534 kts 107°
2026-04-30 12:45 56.49152 72.10340 39142 ft 534 kts 108°
2026-04-30 12:45 56.47361 72.23345 39144 ft 534 kts 108°
2026-04-30 12:46 56.45564 72.36280 39144 ft 533 kts 108°
2026-04-30 12:46 56.43739 72.49312 39140 ft 533 kts 108°
2026-04-30 12:47 56.41909 72.62261 39125 ft 533 kts 107°
2026-04-30 12:47 56.40059 72.75257 39133 ft 532 kts 108°
2026-04-30 12:48 56.38210 72.88128 39144 ft 532 kts 108°
2026-04-30 12:48 56.36337 73.01066 39140 ft 532 kts 108°
2026-04-30 12:49 56.34768 73.11818 39145 ft 532 kts 108°
2026-04-30 12:49 56.32560 73.26826 39142 ft 532 kts 108°
2026-04-30 12:50 56.30968 73.37571 39140 ft 532 kts 108°
2026-04-30 12:50 56.28726 73.52575 39140 ft 532 kts 108°
2026-04-30 12:51 56.27116 73.63258 39129 ft 531 kts 108°
2026-04-30 12:51 56.25168 73.76106 39133 ft 530 kts 108°
2026-04-30 12:52 56.23212 73.88900 39135 ft 530 kts 108°
2026-04-30 12:52 56.21184 74.01600 39136 ft 530 kts 110°
2026-04-30 12:53 56.18897 74.14193 39129 ft 529 kts 111°
2026-04-30 12:53 56.16589 74.26683 39131 ft 529 kts 111°
2026-04-30 12:54 56.14304 74.39189 39127 ft 529 kts 111°
2026-04-30 12:54 56.12019 74.51738 39124 ft 529 kts 110°
2026-04-30 12:55 56.09723 74.64286 39129 ft 528 kts 111°
2026-04-30 12:55 56.07427 74.76751 39127 ft 528 kts 111°
2026-04-30 12:56 56.05106 74.89253 39127 ft 528 kts 111°
2026-04-30 12:56 56.02772 75.01745 39124 ft 528 kts 111°
2026-04-30 12:57 56.00443 75.14122 39125 ft 528 kts 111°
2026-04-30 12:57 55.98083 75.26584 39124 ft 528 kts 111°
2026-04-30 12:58 55.95729 75.38937 39118 ft 528 kts 111°
2026-04-30 12:58 55.93347 75.51356 39122 ft 527 kts 111°
2026-04-30 12:59 55.90957 75.63736 39123 ft 527 kts 111°
2026-04-30 12:59 55.88570 75.76020 39132 ft 527 kts 111°
2026-04-30 13:00 55.86157 75.88360 39124 ft 527 kts 111°
2026-04-30 13:00 55.83727 76.00709 39130 ft 527 kts 111°
2026-04-30 13:01 55.81304 76.12943 39125 ft 527 kts 111°
2026-04-30 13:01 55.78848 76.25268 39127 ft 527 kts 111°
2026-04-30 13:02 55.76396 76.37497 39127 ft 527 kts 111°
2026-04-30 13:02 55.73914 76.49795 39127 ft 528 kts 111°
2026-04-30 13:03 55.71437 76.61996 39127 ft 528 kts 112°
2026-04-30 13:03 55.68933 76.74259 39127 ft 528 kts 112°
2026-04-30 13:04 55.66427 76.86449 39127 ft 528 kts 112°
2026-04-30 13:04 55.63893 76.98703 39130 ft 528 kts 112°
2026-04-30 13:05 55.61353 77.10910 39126 ft 528 kts 111°
2026-04-30 13:06 55.57536 77.29120 39128 ft 527 kts 111°
2026-04-30 13:06 55.54963 77.41301 39129 ft 527 kts 112°
2026-04-30 13:07 55.52401 77.53359 39132 ft 527 kts 112°
2026-04-30 13:07 55.49803 77.65517 39132 ft 527 kts 112°
2026-04-30 13:08 55.47211 77.77570 39131 ft 528 kts 112°
2026-04-30 13:08 55.44593 77.89673 39118 ft 529 kts 112°
2026-04-30 13:09 55.41960 78.01777 39130 ft 529 kts 111°
2026-04-30 13:09 55.39313 78.13875 39130 ft 529 kts 112°
2026-04-30 13:10 55.36710 78.25901 39125 ft 529 kts 108°
2026-04-30 13:10 55.35348 78.38587 39126 ft 528 kts 95°
2026-04-30 13:11 55.34732 78.51378 39130 ft 528 kts 93°
2026-04-30 13:11 55.34209 78.64300 39129 ft 528 kts 93°
2026-04-30 13:12 55.33664 78.77147 39127 ft 528 kts 93°
2026-04-30 13:12 55.33084 78.89957 39134 ft 528 kts 93°
2026-04-30 13:13 55.32168 79.09330 39129 ft 529 kts 94°
2026-04-30 13:14 55.31226 79.28605 39113 ft 529 kts 93°
2026-04-30 13:14 55.30258 79.47794 39144 ft 527 kts 93°
2026-04-30 13:15 55.29261 79.66987 39138 ft 528 kts 93°
2026-04-30 13:16 55.28576 79.79858 39135 ft 528 kts 94°
2026-04-30 13:16 55.27881 79.92639 39138 ft 528 kts 94°
2026-04-30 13:17 55.26810 80.11860 39141 ft 527 kts 94°
2026-04-30 13:18 55.25709 80.31060 39143 ft 527 kts 94°
2026-04-30 13:18 55.24583 80.50183 39146 ft 528 kts 94°
2026-04-30 13:19 55.23811 80.63000 39149 ft 527 kts 94°
2026-04-30 13:19 55.23027 80.75775 39149 ft 527 kts 94°
2026-04-30 13:20 55.22233 80.88510 39148 ft 527 kts 94°
2026-04-30 13:20 55.21423 81.01292 39152 ft 527 kts 94°
2026-04-30 13:21 55.20599 81.14063 39150 ft 527 kts 94°
2026-04-30 13:22 55.19343 81.33077 39156 ft 524 kts 94°
2026-04-30 13:22 55.18064 81.52030 39159 ft 523 kts 95°
2026-04-30 13:23 55.16753 81.71002 39163 ft 523 kts 95°
2026-04-30 13:24 55.14963 81.96225 39162 ft 523 kts 95°
2026-04-30 13:25 55.13117 82.21482 39170 ft 523 kts 95°
2026-04-30 13:26 55.10715 82.52964 39184 ft 523 kts 96°
2026-04-30 13:28 55.08121 82.84372 39179 ft 524 kts 99°
2026-04-30 13:28 55.05722 82.96300 39166 ft 526 kts 114°
2026-04-30 13:28 55.04123 83.02060 39183 ft 526 kts 116°
2026-04-30 13:29 54.97414 83.24579 39191 ft 524 kts 117°
2026-04-30 13:31 54.88992 83.52721 39195 ft 524 kts 117°
2026-04-30 13:32 54.80553 83.80676 39201 ft 520 kts 117°
2026-04-30 13:33 54.73807 84.02786 39204 ft 519 kts 117°
2026-04-30 13:34 54.68730 84.19290 39206 ft 519 kts 117°
2026-04-30 13:35 54.61919 84.41269 39193 ft 519 kts 118°
2026-04-30 13:36 54.55081 84.63095 39214 ft 518 kts 118°
2026-04-30 13:36 54.49917 84.79461 39205 ft 517 kts 118°
2026-04-30 13:37 54.44746 84.95742 39203 ft 517 kts 118°
2026-04-30 13:38 54.39570 85.11928 39191 ft 517 kts 118°
2026-04-30 13:39 54.33187 85.31738 39206 ft 517 kts 118°
2026-04-30 13:40 54.27949 85.47890 39204 ft 518 kts 118°
2026-04-30 13:40 54.24449 85.58618 39204 ft 518 kts 119°
2026-04-30 13:41 54.20921 85.69368 39209 ft 518 kts 119°
2026-04-30 13:41 54.17396 85.80065 39218 ft 518 kts 119°
2026-04-30 13:42 54.13842 85.90809 39209 ft 518 kts 118°
2026-04-30 13:42 54.08525 86.06799 39210 ft 518 kts 119°
2026-04-30 13:43 54.04952 86.17485 39209 ft 518 kts 119°
2026-04-30 13:43 54.01388 86.28098 39211 ft 518 kts 119°
2026-04-30 13:44 53.97798 86.38742 39217 ft 518 kts 119°
2026-04-30 13:44 53.94215 86.49320 39222 ft 518 kts 119°
2026-04-30 13:45 53.88817 86.65170 39232 ft 518 kts 119°
2026-04-30 13:46 53.85191 86.75761 39238 ft 518 kts 119°
2026-04-30 13:46 53.81608 86.86291 39234 ft 518 kts 116°
2026-04-30 13:47 53.78562 86.97330 39238 ft 517 kts 112°
2026-04-30 13:47 53.75676 87.08394 39233 ft 517 kts 112°
2026-04-30 13:48 53.72783 87.19551 39205 ft 517 kts 112°
2026-04-30 13:48 53.69898 87.30583 39208 ft 516 kts 112°
2026-04-30 13:49 53.66982 87.41647 39220 ft 515 kts 112°
2026-04-30 13:49 53.64050 87.52702 39208 ft 515 kts 112°
2026-04-30 13:50 53.61121 87.63698 39206 ft 515 kts 112°
2026-04-30 13:50 53.56719 87.80122 39211 ft 515 kts 112°
2026-04-30 13:51 53.53751 87.91130 39211 ft 515 kts 112°
2026-04-30 13:51 53.50776 88.02112 39204 ft 515 kts 112°
2026-04-30 13:52 53.47809 88.13012 39199 ft 515 kts 113°
2026-04-30 13:52 53.44818 88.23950 39214 ft 514 kts 113°
2026-04-30 13:53 53.41843 88.34774 39213 ft 513 kts 113°
2026-04-30 13:53 53.38839 88.45659 39220 ft 514 kts 113°
2026-04-30 13:54 53.35827 88.56516 39229 ft 513 kts 113°
2026-04-30 13:54 53.32821 88.67304 39232 ft 513 kts 113°
2026-04-30 13:55 53.29778 88.78170 39236 ft 513 kts 113°
2026-04-30 13:55 53.26753 88.88927 39238 ft 513 kts 113°
2026-04-30 13:56 53.23703 88.99729 39258 ft 513 kts 113°
2026-04-30 13:56 53.20669 89.10450 39255 ft 512 kts 113°
2026-04-30 13:57 53.17613 89.21200 39265 ft 511 kts 113°
2026-04-30 13:57 53.14568 89.31866 39267 ft 511 kts 113°
2026-04-30 13:58 53.09974 89.47862 39269 ft 512 kts 114°
2026-04-30 13:59 53.06878 89.58581 39266 ft 511 kts 114°
2026-04-30 13:59 53.03802 89.69183 39263 ft 511 kts 114°
2026-04-30 14:00 53.00694 89.79848 39259 ft 512 kts 114°
2026-04-30 14:00 52.96037 89.95734 39266 ft 511 kts 114°
2026-04-30 14:01 52.92905 90.06358 39262 ft 511 kts 114°
2026-04-30 14:01 52.89786 90.16897 39262 ft 511 kts 114°
2026-04-30 14:02 52.86640 90.27475 39256 ft 511 kts 114°
2026-04-30 14:02 52.83507 90.37967 39260 ft 511 kts 114°
2026-04-30 14:03 52.80343 90.48513 39268 ft 511 kts 114°
2026-04-30 14:03 52.77184 90.58998 39263 ft 511 kts 114°
2026-04-30 14:04 52.74014 90.69469 39271 ft 510 kts 114°
2026-04-30 14:04 52.70826 90.79955 39269 ft 509 kts 114°
2026-04-30 14:05 52.67650 90.90359 39271 ft 509 kts 114°
2026-04-30 14:05 52.64466 91.00743 39281 ft 509 kts 114°
2026-04-30 14:06 52.59669 91.16308 39265 ft 509 kts 115°
2026-04-30 14:07 52.54836 91.31886 39265 ft 509 kts 115°
2026-04-30 14:08 52.49992 91.47398 39255 ft 508 kts 115°
2026-04-30 14:08 52.45150 91.62808 39259 ft 507 kts 115°
2026-04-30 14:09 52.41901 91.73101 39255 ft 507 kts 115°
2026-04-30 14:10 52.37005 91.88516 39256 ft 508 kts 115°
2026-04-30 14:10 52.33750 91.98714 39265 ft 507 kts 115°
2026-04-30 14:11 52.30471 92.08934 39239 ft 507 kts 115°
2026-04-30 14:11 52.27210 92.19073 39243 ft 507 kts 115°
2026-04-30 14:12 52.23913 92.29267 39256 ft 506 kts 115°
2026-04-30 14:12 52.20611 92.39431 39249 ft 506 kts 115°
2026-04-30 14:13 52.17324 92.49516 39254 ft 506 kts 115°
2026-04-30 14:13 52.14021 92.59611 39256 ft 506 kts 116°
2026-04-30 14:14 52.10691 92.69746 39256 ft 506 kts 116°
2026-04-30 14:14 52.07373 92.79799 39259 ft 506 kts 116°
2026-04-30 14:15 52.04049 92.89832 39261 ft 506 kts 116°
2026-04-30 14:15 52.00696 92.99914 39264 ft 506 kts 116°
2026-04-30 14:16 51.97358 93.09909 39263 ft 505 kts 116°
2026-04-30 14:16 51.93989 93.19954 39274 ft 505 kts 116°
2026-04-30 14:17 51.90637 93.29912 39269 ft 505 kts 116°
2026-04-30 14:17 51.87261 93.39898 39270 ft 505 kts 116°
2026-04-30 14:18 51.83875 93.49876 39278 ft 505 kts 116°
2026-04-30 14:18 51.78790 93.64782 39277 ft 505 kts 116°
2026-04-30 14:19 51.73691 93.79642 39275 ft 505 kts 117°
2026-04-30 14:20 51.70272 93.89558 39280 ft 505 kts 117°
2026-04-30 14:20 51.65150 94.04339 39272 ft 504 kts 117°
2026-04-30 14:21 51.61725 94.14176 39270 ft 504 kts 117°
2026-04-30 14:22 51.57032 94.29272 39266 ft 503 kts 112°
2026-04-30 14:22 51.52732 94.44641 39269 ft 503 kts 111°
2026-04-30 14:23 51.46991 94.65081 39266 ft 503 kts 112°
2026-04-30 14:24 51.42638 94.80416 39281 ft 503 kts 112°
2026-04-30 14:25 51.36820 95.00757 39273 ft 503 kts 112°
2026-04-30 14:26 51.32433 95.15979 39276 ft 503 kts 112°
2026-04-30 14:27 51.28027 95.31172 39280 ft 503 kts 112°
2026-04-30 14:27 51.25563 95.39625 39283 ft 503 kts 112°
2026-04-30 14:28 51.20629 95.56463 39287 ft 503 kts 113°
2026-04-30 14:28 51.17657 95.66548 39289 ft 504 kts 113°
2026-04-30 14:29 51.12172 95.85056 39292 ft 504 kts 113°
2026-04-30 14:31 51.04647 96.10213 39296 ft 503 kts 113°
2026-04-30 14:31 51.00116 96.25236 39305 ft 503 kts 114°
2026-04-30 14:32 50.95568 96.40219 39302 ft 504 kts 114°
2026-04-30 14:33 50.92513 96.50234 39309 ft 504 kts 114°
2026-04-30 14:33 50.87913 96.65238 39313 ft 506 kts 114°
2026-04-30 14:34 50.84832 96.75231 39311 ft 507 kts 114°
2026-04-30 14:34 50.81726 96.85269 39314 ft 507 kts 114°
2026-04-30 14:35 50.77065 97.00253 39306 ft 507 kts 114°
2026-04-30 14:36 50.73940 97.10250 39307 ft 507 kts 114°
2026-04-30 14:36 50.70824 97.20178 39304 ft 507 kts 114°
2026-04-30 14:37 50.67693 97.30110 39303 ft 507 kts 114°
2026-04-30 14:37 50.64531 97.40103 39303 ft 507 kts 114°
2026-04-30 14:38 50.61388 97.49997 39300 ft 507 kts 115°
2026-04-30 14:38 50.58217 97.59936 39295 ft 507 kts 115°
2026-04-30 14:39 50.55058 97.69799 39288 ft 507 kts 115°
2026-04-30 14:39 50.51873 97.79706 39291 ft 507 kts 115°
2026-04-30 14:40 50.47087 97.94514 39290 ft 507 kts 115°
2026-04-30 14:40 50.43880 98.04391 39282 ft 507 kts 115°
2026-04-30 14:41 50.40685 98.14189 39281 ft 507 kts 115°
2026-04-30 14:41 50.37454 98.24059 39278 ft 507 kts 115°
2026-04-30 14:42 50.33861 98.33527 39280 ft 509 kts 122°
2026-04-30 14:42 50.29841 98.42665 39277 ft 509 kts 124°
2026-04-30 14:43 50.25747 98.51745 39262 ft 509 kts 124°
2026-04-30 14:43 50.21678 98.60744 39267 ft 509 kts 124°
2026-04-30 14:44 50.17611 98.69744 39255 ft 509 kts 124°
2026-04-30 14:44 50.13507 98.78804 39256 ft 509 kts 124°
2026-04-30 14:45 50.09407 98.87829 39250 ft 509 kts 124°
2026-04-30 14:45 50.05326 98.96781 39247 ft 509 kts 124°
2026-04-30 14:46 50.01212 99.05776 39249 ft 509 kts 124°
2026-04-30 14:46 49.97086 99.14764 39252 ft 510 kts 124°
2026-04-30 14:47 49.92980 99.23680 39248 ft 510 kts 124°
2026-04-30 14:47 49.88836 99.32646 39250 ft 510 kts 124°
2026-04-30 14:48 49.84704 99.41557 39249 ft 510 kts 124°
2026-04-30 14:48 49.80570 99.50442 39256 ft 510 kts 124°
2026-04-30 14:49 49.76413 99.59347 39254 ft 509 kts 125°
2026-04-30 14:49 49.72262 99.68206 39264 ft 509 kts 125°
2026-04-30 14:50 49.66021 99.81476 39268 ft 509 kts 125°
2026-04-30 14:51 49.59748 99.94755 39274 ft 510 kts 125°
2026-04-30 14:52 49.53471 100.07968 39273 ft 510 kts 125°
2026-04-30 14:52 49.47109 100.21010 39336 ft 508 kts 128°
2026-04-30 14:53 49.40737 100.34085 39280 ft 510 kts 128°
2026-04-30 14:54 49.32333 100.51502 39282 ft 510 kts 128°
2026-04-30 14:55 49.28097 100.60243 39390 ft 511 kts 128°
2026-04-30 14:55 49.25969 100.64620 39392 ft 510 kts 128°
2026-04-30 14:56 49.17481 100.82012 39399 ft 510 kts 128°
2026-04-30 14:57 49.11109 100.94994 39403 ft 510 kts 128°
2026-04-30 14:58 49.02575 101.12279 39401 ft 511 kts 128°
2026-04-30 14:58 48.96138 101.25248 39397 ft 511 kts 129°
2026-04-30 15:00 48.85419 101.46699 39416 ft 510 kts 129°
2026-04-30 15:01 48.76795 101.63835 39414 ft 511 kts 129°
2026-04-30 15:01 48.70314 101.76644 39423 ft 511 kts 129°
2026-04-30 15:02 48.65961 101.85209 39431 ft 512 kts 130°
2026-04-30 15:03 48.55070 102.06516 39430 ft 513 kts 130°
2026-04-30 15:04 48.44143 102.27729 39434 ft 515 kts 130°
2026-04-30 15:06 48.33105 102.48990 39435 ft 516 kts 130°
2026-04-30 15:07 48.24249 102.65928 39422 ft 516 kts 130°
2026-04-30 15:08 48.15368 102.82807 39420 ft 516 kts 131°
2026-04-30 15:09 48.04250 103.03790 39408 ft 516 kts 131°
2026-04-30 15:10 47.95283 103.20597 39414 ft 516 kts 131°
2026-04-30 15:11 47.81797 103.45675 39412 ft 518 kts 132°
2026-04-30 15:13 47.70528 103.66446 39412 ft 519 kts 132°
2026-04-30 15:14 47.54580 103.95577 39393 ft 519 kts 133°
2026-04-30 15:17 47.33978 104.32757 39390 ft 521 kts 133°
2026-04-30 15:19 47.16275 104.64301 39378 ft 522 kts 134°
2026-04-30 17:39 29.51391 113.75775 39179 ft 487 kts 190°
2026-04-30 17:42 29.17542 113.73740 39183 ft 490 kts 185°
2026-04-30 17:43 29.00530 113.74510 39191 ft 489 kts 185°
2026-04-30 17:44 28.81273 113.75073 39195 ft 489 kts 185°
2026-04-30 17:47 28.51052 113.73623 39196 ft 482 kts 191°
2026-04-30 17:48 28.27649 113.71914 39197 ft 481 kts 191°
2026-04-30 17:50 28.00916 113.69819 39191 ft 480 kts 193°
2026-04-30 17:52 27.80963 113.67998 39185 ft 480 kts 193°
2026-04-30 17:54 27.50930 113.66128 39196 ft 484 kts 188°
2026-04-30 17:56 27.23945 113.66495 39194 ft 496 kts 176°
2026-04-30 17:58 27.03819 113.72131 39186 ft 498 kts 173°
2026-04-30 18:00 26.77045 113.79838 39191 ft 494 kts 173°
2026-04-30 18:01 26.60403 113.84597 39193 ft 494 kts 173°
2026-04-30 18:02 26.40415 113.90292 39196 ft 495 kts 173°
2026-04-30 18:04 26.20413 113.95975 39204 ft 495 kts 173°
2026-04-30 18:06 25.93685 114.03535 39212 ft 497 kts 173°